{"data":{"norad_id":48100,"epoch":"2026-09-20T03:41:58.021728Z","epoch_age_seconds":59871,"freshness":"FRESH","line1":"1 48100U 21027J   26263.15414377 -.00000178  00000+0  60377-5 0  9990","line2":"2 48100  53.1619 327.4811 0001114  72.3292 287.7831 15.31699499302487","mean_motion":15.31699499,"eccentricity":0.0001114,"inclination_deg":53.1619,"raan_deg":327.4811,"arg_perigee_deg":72.3292,"mean_anomaly_deg":287.7831,"bstar":6.0377e-6,"rev_number":30248,"period_min":94.013218711642,"perigee_km":469.97852361735,"apogee_km":471.50445374462,"semimajor_km":6848.878488681,"source":"CELESTRAK","updated_at":"2026-09-20T09:00:38.762492Z"}}